吉利星座2组06星 (GEESAT-2 06)

导读

GEESAT 2-06是中国于北京时间2024年2月2日8时发射的卫星,GEESAT 2系列卫星一般隶属于长光卫星技术有限公司研制的吉林一号卫星星座,承担着商业遥感任务,可获取高分辨率对地观测影像,服务于自然资源监测、农业估产、智慧城市建设等多个领域,将进一步丰富我国商业遥感卫星星座的数据获取能力。

基本信息
目录编号:
58910
目录名称:
GEESAT 2-06
国际标识:
2024-023F
轨道中心:
EARTH
卫星名称:
吉利星座2组06星
卫星全名:
吉利星座2组06星 (GEESAT-2 06)
卫星状态:
在轨 (已飞行861 天)
发射日期:
2024-02-02 UTC
国别 :
中国 (CN)
星等 :
--
轨道信息
数据来源 国际轨道数据 AOE轨道数据
星历时间 2026-06-12T14:18:12+0800
13小时前
查看轨道信息
2026-06-08T00:00:00+0800
5天前
查看轨道信息
半长轴 6932.273km 6932.449km
偏心率 0.0005554 0.0005696
轨道倾角 49.989° 49.990°
近地点辐角 35.471° 16.634°
升交点赤经 323.262° 345.259°
平近点角 324.661° 278.885°
近地点 550.285km 550.363km
远地点 557.987km 558.261km
周期 95.736分钟 95.739分钟
每日圈数 15.041436 15.040864
详细信息
平衡模式:
三轴稳定
覆盖范围:
全球
运营商:
时空道宇科技有限公司
运营商所在国:
中国
制造商(研发单位):
时空道宇科技有限公司
制造商所在国:
中国
使用方式:
暂无
卫星简介
吉利星座(GeeSAT)也称“吉利未来出行星座”,由吉利旗下时空道宇自主研发,布局硬核科技生态,赋能智慧出行、无人系统、智慧城市等领域,并将全面提升吉利控股旗下极氪、领克、远程新能源商用车等品牌的用户智能出行体验。通过“吉利未来出行星座”建设,吉利控股集团将构建天地一体化高精时空信息系统。该卫星仍在工作。
2D轨道图
3D轨道图
轨道高度分析图
轨道倾角分析图
轨道综合分析图
查看轨道综合分析图